Вернуться в каталог

ION SCV-008

АктивенНаукаSSO
NORAD 55051·PAYLOAD·🇮🇹 Italy

Запущен Jan 3, 2023 с Cape Canaveral Space Force Station

Loading…

Ближайшие Пролёты (ближайшие 24 часа)

TLE

СвежийSource: Space-Track

Эпоха: Sep 13, 2026, 20:18 UTC

1 55051U 23001AU  26256.84648471  .00005351  00000-0  18915-3 0  9996
2 55051  97.5720 354.7087 0015775  62.7898 297.4947 15.29513982204886

Отслеживайте ION SCV-008 в реальном времени с AllMySat

Download on the App Store